Humidity-temperature Sensor

Selected Measurement Type: Air Temperature

 
Air Temperature [°C]     6 entries per hour
Showing data from 6/24/2019 (00:00:00 Z) to 6/17/2019 (10:40:00 Z)
Previous Next [ Day | 3-Days | 7-Days ]
First Last
Prev [ Day | 3-Days | 7-Days ] Next
First Last

Start Time:     :
End Time:     :     
Time (in GMT) :00 :50 :40 :30 :20 :10
Previous Next [ Day | 3-Days | 7-Days ]
First Last
Prev [ Day | 3-Days | 7-Days ] Next
First Last


123 => good data
MM => data is determined as missing
-- => data not received/configured
Back to Top Back to Top
6/24/2019 00:00 to 23:10 -- -- -- -- -- --
6/23/2019 23:00 to 22:10 -- -- -- -- -- --
6/23/2019 22:00 to 21:10 -- -- -- -- -- --
6/23/2019 21:00 to 20:10 -- -- -- -- -- --
6/23/2019 20:00 to 19:10 26.59 26.50 26.56 26.56 26.47 26.53
6/23/2019 19:00 to 18:10 -- -- -- -- -- --
6/23/2019 18:00 to 17:10 -- -- -- -- -- --
6/23/2019 17:00 to 16:10 -- -- -- -- -- --
6/23/2019 16:00 to 15:10 -- -- -- -- -- --
6/23/2019 15:00 to 14:10 -- -- -- -- -- --
6/23/2019 14:00 to 13:10 -- -- -- -- -- --
6/23/2019 13:00 to 12:10 -- -- -- -- -- --
6/23/2019 12:00 to 11:10 -- -- -- -- -- --
6/23/2019 11:00 to 10:10 -- -- -- -- -- --
6/23/2019 10:00 to 9:10 -- -- -- -- -- --
6/23/2019 09:00 to 8:10 -- -- -- -- -- --
6/23/2019 08:00 to 7:10 -- -- -- -- -- --
6/23/2019 07:00 to 6:10 -- -- -- -- -- --
6/23/2019 06:00 to 5:10 -- -- -- -- -- --
6/23/2019 05:00 to 4:10 -- -- -- -- -- --
6/23/2019 04:00 to 3:10 -- -- -- -- -- --
6/23/2019 03:00 to 2:10 -- -- -- -- -- --
6/23/2019 02:00 to 1:10 -- -- -- -- -- --
6/23/2019 01:00 to 0:10 -- -- -- -- -- --
6/23/2019 00:00 to 23:10 26.72 26.68 26.70 26.70 26.69 26.70
6/22/2019 23:00 to 22:10 26.69 26.58 26.59 26.60 26.62 26.69
6/22/2019 22:00 to 21:10 -- -- -- -- -- --
6/22/2019 21:00 to 20:10 -- -- -- -- -- --
6/22/2019 20:00 to 19:10 -- -- -- -- -- --
6/22/2019 19:00 to 18:10 -- -- -- -- -- --
6/22/2019 18:00 to 17:10 -- -- -- -- -- --
6/22/2019 17:00 to 16:10 -- -- -- -- -- --
6/22/2019 16:00 to 15:10 -- -- -- -- -- --
6/22/2019 15:00 to 14:10 -- -- -- -- -- --
6/22/2019 14:00 to 13:10 -- -- -- -- -- --
6/22/2019 13:00 to 12:10 -- -- -- -- -- --
6/22/2019 12:00 to 11:10 -- -- -- -- -- --
6/22/2019 11:00 to 10:10 26.75 26.70 26.67 26.69 26.49 26.18
6/22/2019 10:00 to 9:10 26.63 26.68 26.80 26.83 26.61 26.86
6/22/2019 09:00 to 8:10 26.83 26.82 26.85 26.84 26.87 26.87
6/22/2019 08:00 to 7:10 26.93 26.90 26.96 26.98 26.96 27.00
6/22/2019 07:00 to 6:10 26.99 26.99 27.12 27.06 27.13 27.07
6/22/2019 06:00 to 5:10 27.15 27.15 27.22 27.21 27.19 27.18
6/22/2019 05:00 to 4:10 27.25 27.24 27.13 27.09 27.09 27.21
6/22/2019 04:00 to 3:10 27.29 27.24 27.30 27.28 27.33 27.36
6/22/2019 03:00 to 2:10 27.25 27.23 27.37 27.37 27.37 27.35
6/22/2019 02:00 to 1:10 27.43 27.43 27.48 27.47 27.33 27.34
6/22/2019 01:00 to 0:10 27.27 27.26 27.26 27.35 27.24 27.24
6/22/2019 00:00 to 23:10 27.19 27.20 27.20 27.16 27.16 27.17
6/21/2019 23:00 to 22:10 27.16 27.31 27.33 27.28 27.18 27.30
6/21/2019 22:00 to 21:10 27.46 27.40 27.32 27.35 27.26 27.28
6/21/2019 21:00 to 20:10 27.35 27.29 27.28 27.37 27.35 27.40
6/21/2019 20:00 to 19:10 27.29 27.29 27.30 27.33 27.36 27.31
6/21/2019 19:00 to 18:10 27.34 27.30 27.30 27.22 27.21 27.24
6/21/2019 18:00 to 17:10 27.21 27.20 27.18 27.23 27.17 27.34
6/21/2019 17:00 to 16:10 27.30 27.25 27.33 27.23 27.30 27.21
6/21/2019 16:00 to 15:10 27.21 27.15 27.08 27.00 27.08 27.24
6/21/2019 15:00 to 14:10 27.11 27.26 27.17 26.95 27.04 26.93
6/21/2019 14:00 to 13:10 26.93 27.05 27.16 27.16 26.92 27.02
6/21/2019 13:00 to 12:10 27.24 27.19 27.05 27.02 27.10 27.12
6/21/2019 12:00 to 11:10 27.12 27.07 27.05 27.03 26.84 26.71
6/21/2019 11:00 to 10:10 26.93 26.93 26.95 26.72 26.74 26.88
6/21/2019 10:00 to 9:10 26.94 26.97 26.93 26.95 26.86 26.85
6/21/2019 09:00 to 8:10 26.92 26.90 26.86 26.90 26.80 26.73
6/21/2019 08:00 to 7:10 26.72 26.64 26.71 26.67 26.72 26.44
6/21/2019 07:00 to 6:10 26.94 27.07 26.96 27.02 27.03 27.02
6/21/2019 06:00 to 5:10 27.12 27.07 27.02 27.02 27.07 27.08
6/21/2019 05:00 to 4:10 27.20 27.05 26.76 26.76 26.85 26.98
6/21/2019 04:00 to 3:10 26.82 26.69 26.43 26.50 26.68 27.20
6/21/2019 03:00 to 2:10 27.12 27.11 27.10 27.08 27.04 27.21
6/21/2019 02:00 to 1:10 27.17 27.19 27.17 27.17 27.12 27.07
6/21/2019 01:00 to 0:10 27.05 27.03 27.02 27.02 27.03 27.07
6/21/2019 00:00 to 23:10 27.02 26.94 26.88 26.96 27.14 27.07
6/20/2019 23:00 to 22:10 27.22 27.21 27.26 27.11 26.98 26.95
6/20/2019 22:00 to 21:10 27.02 27.02 26.98 26.99 27.00 26.92
6/20/2019 21:00 to 20:10 26.91 26.85 26.85 26.98 26.89 26.64
6/20/2019 20:00 to 19:10 26.69 26.66 27.04 27.00 27.04 27.16
6/20/2019 19:00 to 18:10 26.96 27.08 27.08 27.11 27.09 27.09
6/20/2019 18:00 to 17:10 27.09 27.04 27.09 27.00 27.05 27.16
6/20/2019 17:00 to 16:10 27.06 26.93 26.96 26.78 26.69 26.76
6/20/2019 16:00 to 15:10 26.90 26.93 27.00 26.92 26.81 26.66
6/20/2019 15:00 to 14:10 26.70 26.50 26.66 26.94 26.89 26.77
6/20/2019 14:00 to 13:10 26.85 26.83 26.80 26.85 26.70 26.65
6/20/2019 13:00 to 12:10 26.69 26.67 26.67 26.66 26.31 26.36
6/20/2019 12:00 to 11:10 26.47 26.98 26.84 26.75 26.65 26.63
6/20/2019 11:00 to 10:10 26.56 26.44 26.48 26.40 26.43 26.50
6/20/2019 10:00 to 9:10 26.41 26.39 26.47 26.57 26.45 26.65
6/20/2019 09:00 to 8:10 26.54 26.44 26.46 26.54 26.60 26.56
6/20/2019 08:00 to 7:10 26.55 26.36 26.35 26.36 26.57 26.42
6/20/2019 07:00 to 6:10 26.55 26.68 26.95 27.19 27.12 26.90
6/20/2019 06:00 to 5:10 26.51 26.65 27.28 27.28 27.19 27.18
6/20/2019 05:00 to 4:10 27.24 27.25 27.21 27.24 27.23 27.28
6/20/2019 04:00 to 3:10 27.24 27.28 27.25 27.30 27.32 27.27
6/20/2019 03:00 to 2:10 27.25 27.24 27.20 27.14 27.14 27.20
6/20/2019 02:00 to 1:10 27.14 27.21 27.11 27.05 27.14 27.07
6/20/2019 01:00 to 0:10 27.14 27.08 26.95 27.18 27.14 27.16
6/20/2019 00:00 to 23:10 26.99 26.80 26.70 26.77 26.73 26.81
6/19/2019 23:00 to 22:10 26.83 27.15 27.07 27.06 27.06 27.10
6/19/2019 22:00 to 21:10 27.09 27.12 27.16 27.10 27.15 27.17
6/19/2019 21:00 to 20:10 27.11 27.02 27.09 27.09 27.20 27.21
6/19/2019 20:00 to 19:10 27.13 27.21 27.16 27.03 26.96 26.94
6/19/2019 19:00 to 18:10 26.98 27.02 26.84 26.80 27.02 26.98
6/19/2019 18:00 to 17:10 26.97 27.00 27.05 26.99 26.96 26.92
6/19/2019 17:00 to 16:10 26.99 26.91 27.04 26.97 26.91 26.93
6/19/2019 16:00 to 15:10 27.02 27.01 27.02 26.97 26.86 26.94
6/19/2019 15:00 to 14:10 26.98 27.20 27.12 27.12 27.13 27.21
6/19/2019 14:00 to 13:10 27.18 27.20 27.17 27.17 27.12 27.13
6/19/2019 13:00 to 12:10 27.09 27.03 26.96 27.02 27.01 27.04
6/19/2019 12:00 to 11:10 26.89 26.87 26.88 26.73 26.69 26.74
6/19/2019 11:00 to 10:10 26.70 26.66 26.72 26.65 26.68 26.70
6/19/2019 10:00 to 9:10 26.74 26.96 26.82 26.85 26.84 26.90
6/19/2019 09:00 to 8:10 26.89 26.87 26.85 26.85 26.88 26.86
6/19/2019 08:00 to 7:10 26.81 26.84 26.76 26.83 26.85 26.89
6/19/2019 07:00 to 6:10 26.94 26.97 26.97 26.96 26.98 27.01
6/19/2019 06:00 to 5:10 26.93 27.05 27.01 27.07 27.07 27.08
6/19/2019 05:00 to 4:10 27.06 27.07 26.95 26.93 26.89 26.83
6/19/2019 04:00 to 3:10 26.82 26.79 26.65 26.59 26.61 26.55
6/19/2019 03:00 to 2:10 26.54 26.39 26.41 26.15 26.09 26.08
6/19/2019 02:00 to 1:10 26.05 25.93 26.00 26.01 26.12 25.92
6/19/2019 01:00 to 0:10 26.13 26.35 26.28 26.37 26.40 26.31
6/19/2019 00:00 to 23:10 26.11 25.98 26.18 26.19 26.33 26.35
6/18/2019 23:00 to 22:10 26.56 26.61 26.61 26.61 26.58 26.56
6/18/2019 22:00 to 21:10 26.54 26.52 26.56 26.56 26.60 26.65
6/18/2019 21:00 to 20:10 26.68 26.76 26.80 26.82 26.83 26.89
6/18/2019 20:00 to 19:10 26.78 26.75 26.72 26.74 26.66 26.72
6/18/2019 19:00 to 18:10 26.61 26.51 26.46 26.28 26.33 26.29
6/18/2019 18:00 to 17:10 26.24 26.03 25.87 25.80 26.01 26.06
6/18/2019 17:00 to 16:10 25.80 25.82 25.83 25.68 25.73 25.75
6/18/2019 16:00 to 15:10 25.83 25.81 26.04 25.90 26.25 26.30
6/18/2019 15:00 to 14:10 26.52 26.37 26.39 26.26 26.42 26.48
6/18/2019 14:00 to 13:10 26.34 26.28 26.28 26.14 26.13 26.21
6/18/2019 13:00 to 12:10 26.12 26.06 25.78 25.72 25.68 25.69
6/18/2019 12:00 to 11:10 25.64 25.63 25.88 25.76 25.67 25.74
6/18/2019 11:00 to 10:10 25.79 25.80 25.59 25.66 25.55 25.85
6/18/2019 10:00 to 9:10 25.80 25.82 25.73 25.68 25.99 25.91
6/18/2019 09:00 to 8:10 25.65 25.90 26.02 26.31 26.44 26.72
6/18/2019 08:00 to 7:10 26.90 26.94 26.90 26.91 26.82 26.65
6/18/2019 07:00 to 6:10 26.65 26.60 26.71 26.62 26.41 26.61
6/18/2019 06:00 to 5:10 27.10 27.10 27.04 26.96 27.08 27.10
6/18/2019 05:00 to 4:10 27.19 27.20 27.15 27.13 27.20 27.19
6/18/2019 04:00 to 3:10 27.25 27.19 27.18 27.17 27.09 27.05
6/18/2019 03:00 to 2:10 26.46 26.85 26.03 27.01 27.25 27.33
6/18/2019 02:00 to 1:10 27.21 27.25 27.24 27.23 27.25 27.25
6/18/2019 01:00 to 0:10 27.27 27.16 27.19 27.17 27.20 27.13
6/18/2019 00:00 to 23:10 27.11 27.10 27.11 26.97 26.73 26.12
6/17/2019 23:00 to 22:10 25.71 25.48 25.26 25.37 25.51 26.05
6/17/2019 22:00 to 21:10 26.85 26.83 26.72 26.47 26.14 25.92
6/17/2019 21:00 to 20:10 26.20 26.40 27.37 27.28 27.15 27.14
6/17/2019 20:00 to 19:10 27.13 27.19 27.16 27.21 27.44 26.92
6/17/2019 19:00 to 18:10 26.59 26.81 26.77 27.24 27.52 27.10
6/17/2019 18:00 to 17:10 27.17 27.27 27.22 27.20 26.94 27.07
6/17/2019 17:00 to 16:10 26.92 26.76 26.58 26.37 26.29 26.25
6/17/2019 16:00 to 15:10 26.88 27.20 27.11 26.83 26.81 26.39
6/17/2019 15:00 to 14:10 26.23 26.02 25.83 25.85 25.63 25.89
6/17/2019 14:00 to 13:10 27.02 26.93 26.77 26.84 26.76 26.76
6/17/2019 13:00 to 12:10 26.51 26.21 26.16 26.21 26.80 26.56
6/17/2019 12:00 to 11:10 26.48 26.39 26.42 26.55 26.80 26.62
6/17/2019 11:00 to 10:10 26.45 26.20 26.33 -- -- --